Home   Weather   Kashgar   Past weeks

Flag for China Past Weather in Kashgar, Xinjiang, China — Yesterday and Last 2 Weeks

Now
36 °F

Sunny.


Feels Like: 31 °F
Forecast: 30 / 46 °F
Wind: 6 mph from North

Location: Kashi Airport

Current Time: Feb 24, 2017 at 2:45:17 pm

Latest Report: Feb 24, 2017 at 2:00 pm


Visibility: 10 mi

Pressure: 30.36 "Hg (25.84 "Hg at 1298m altitude)

Humidity: 52%

Dew Point: 19 °F

Location of KashgarLocation

Past Weather in Kashgar — Graph

°F

Kashgar Temperature Yesterday

Maximum temperature yesterday: 37 °F (at 5:00 pm)
Minimum temperature yesterday: 23 °F (at 7:00 am)
Average temperature yesterday: 29 °F

High & Low Weather Summary for the Past Weeks

 TemperatureHumidityPressure
High54 °F (Feb 19, 4:00 pm)100% (Feb 21, 10:00 am)30.39 "Hg (Feb 21, 10:00 am)
Low23 °F (Feb 23, 7:00 am)7% (Feb 20, 3:00 pm)29.62 "Hg (Feb 19, 6:00 am)
Average36 °F60%30.16 "Hg
* Reported Feb 9 1:00 pm — Feb 24 1:00 pm, Kashgar, Weather by CustomWeather, © 2017

Note: Actual official high and low records may vary slightly from our data, if they occured in-between our weather recording intervals... More about our weather records

Advertising

Kashgar Weather History for the Previous 24 Hours

Scroll right to see more
 ConditionsComfort  
Time TempWeatherWind HumidityBarometerVisibility
1:00 pm
Fri, Feb 24
34 °FPassing clouds.6 mph56%30.39 "HgN/A
12:00 pm30 °FSunny.10 mph64%30.39 "Hg10 mi
11:00 am27 °FSunny.13 mph64%30.36 "Hg10 mi
10:00 am23 °FSunny.13 mph68%30.36 "Hg10 mi
9:00 am25 °FSunny.13 mph69%30.33 "Hg10 mi
8:00 am25 °FSunny.10 mph69%30.30 "Hg10 mi
7:00 am25 °FClear.10 mph69%30.30 "Hg10 mi
6:00 am25 °FClear.10 mph74%30.30 "Hg10 mi
5:00 am27 °FClear.10 mph69%30.30 "Hg10 mi
4:00 am27 °FClear.10 mph74%30.30 "Hg10 mi
3:00 am27 °FClear.10 mph74%30.30 "Hg10 mi
2:00 am28 °FClear.10 mph69%30.30 "Hg10 mi
1:00 am28 °FClear.10 mph74%30.30 "Hg10 mi
12:00 am30 °FClear.8 mph69%30.30 "Hg10 mi
11:00 pm
Thu, Feb 23
30 °FClear.8 mph69%30.30 "Hg10 mi
10:00 pm32 °FClear.8 mph69%30.30 "Hg10 mi
9:00 pm34 °FPassing clouds.6 mph65%30.27 "HgN/A
8:00 pm36 °FPassing clouds.6 mph56%30.27 "HgN/A
7:00 pm37 °FPassing clouds.6 mph52%30.24 "HgN/A
6:00 pm37 °FPartly sunny.1 mph41%30.24 "HgN/A
5:00 pm37 °FScattered clouds.1 mph48%30.24 "HgN/A
4:00 pm36 °FScattered clouds.6 mph52%30.27 "HgN/A
3:00 pm36 °FPassing clouds.3 mph52%30.27 "HgN/A
2:00 pm34 °FPassing clouds.3 mph51%30.30 "HgN/A
Weather by CustomWeather, © 2017

See weather overviewHow to use our weather pages